Time,TemperatureF,DewpointF,PressureIn,WindDirection,WindDirectionDegrees,WindSpeedMPH,WindSpeedGustMPH,Humidity,HourlyPrecipIn,Conditions,Clouds,dailyrainin,SoftwareType,DateUTC
2013-04-17 00:02:00,39.0,38.0,-100.00,ENE,69,1.0,2.0,96,-99.99,,,-99.99,,2013-04-17 07:02:00,
2013-04-17 00:12:00,39.0,38.0,-100.00,NE,56,1.0,2.0,96,-99.99,,,-99.99,,2013-04-17 07:12:00,
2013-04-17 00:22:00,38.0,37.0,-100.00,ENE,65,2.0,2.0,95,-99.99,,,-99.99,,2013-04-17 07:22:00,
2013-04-17 00:32:00,38.0,37.0,-100.00,ENE,65,1.0,2.0,95,-99.99,,,-99.99,,2013-04-17 07:32:00,
2013-04-17 00:42:00,38.0,37.0,-100.00,NE,55,1.0,2.0,95,-99.99,,,-99.99,,2013-04-17 07:42:00,
2013-04-17 00:52:00,38.0,36.0,-100.00,East,82,1.0,2.0,94,-99.99,,,-99.99,,2013-04-17 07:52:00,
2013-04-17 01:02:00,38.0,36.0,-100.00,ENE,75,1.0,2.0,92,-99.99,,,-99.99,,2013-04-17 08:02:00,
2013-04-17 01:12:00,38.0,35.0,-100.00,ENE,59,1.0,2.0,88,-99.99,,,-99.99,,2013-04-17 08:12:00,
2013-04-17 01:22:00,38.0,34.0,-100.00,NE,48,1.0,2.0,87,-99.99,,,-99.99,,2013-04-17 08:22:00,
2013-04-17 01:32:00,39.0,35.0,-100.00,ENE,71,2.0,2.0,86,-99.99,,,-99.99,,2013-04-17 08:32:00,
2013-04-17 01:42:00,38.0,35.0,-100.00,NE,38,2.0,2.0,88,-99.99,,,-99.99,,2013-04-17 08:42:00,
2013-04-17 01:52:00,40.0,37.0,-100.00,North,4,2.0,2.0,89,-99.99,,,-99.99,,2013-04-17 08:52:00,
2013-04-17 02:02:00,40.0,37.0,-100.00,North,0,1.0,0.0,88,-99.99,,,-99.99,,2013-04-17 09:02:00,
2013-04-17 02:12:00,40.0,37.0,-100.00,WNW,303,0.0,3.0,90,-99.99,,,-99.99,,2013-04-17 09:12:00,
2013-04-17 02:22:00,40.0,38.0,-100.00,WSW,257,1.0,4.0,92,-99.99,,,-99.99,,2013-04-17 09:22:00,
2013-04-17 02:32:00,41.0,39.0,-100.00,WSW,250,1.0,3.0,93,-99.99,,,-99.99,,2013-04-17 09:32:00,
2013-04-17 02:42:00,40.0,38.0,-100.00,West,271,1.0,4.0,94,-99.99,,,-99.99,,2013-04-17 09:42:00,
2013-04-17 02:52:00,41.0,40.0,-100.00,West,281,2.0,3.0,95,-99.99,,,-99.99,,2013-04-17 09:52:00,
2013-04-17 03:02:00,41.0,40.0,-100.00,West,277,1.0,6.0,95,-99.99,,,-99.99,,2013-04-17 10:02:00,
2013-04-17 03:12:00,41.0,40.0,-100.00,West,267,2.0,4.0,95,-99.99,,,-99.99,,2013-04-17 10:12:00,
2013-04-17 03:23:00,41.0,40.0,-100.00,West,264,2.0,4.0,96,-99.99,,,-99.99,,2013-04-17 10:23:00,
2013-04-17 03:32:00,41.0,40.0,-100.00,West,261,2.0,3.0,96,-99.99,,,-99.99,,2013-04-17 10:32:00,
2013-04-17 03:42:00,41.0,40.0,-100.00,WNW,284,1.0,6.0,96,-99.99,,,-99.99,,2013-04-17 10:42:00,
2013-04-17 03:52:00,41.0,40.0,-100.00,West,267,2.0,6.0,96,-99.99,,,-99.99,,2013-04-17 10:52:00,
2013-04-17 04:02:00,41.0,40.0,-100.00,West,276,3.0,6.0,97,-99.99,,,-99.99,,2013-04-17 11:02:00,
2013-04-17 04:11:00,41.0,40.0,-100.00,West,275,3.0,5.0,97,-99.99,,,-99.99,,2013-04-17 11:11:00,
2013-04-17 04:22:00,41.0,40.0,-100.00,WNW,291,2.0,5.0,97,-99.99,,,-99.99,,2013-04-17 11:22:00,
2013-04-17 04:32:00,41.0,40.0,-100.00,WNW,285,3.0,8.0,97,-99.99,,,-99.99,,2013-04-17 11:32:00,
2013-04-17 04:42:00,41.0,40.0,-100.00,WSW,251,4.0,4.0,97,-99.99,,,-99.99,,2013-04-17 11:42:00,
2013-04-17 04:52:00,41.0,40.0,-100.00,West,280,2.0,5.0,97,-99.99,,,-99.99,,2013-04-17 11:52:00,
2013-04-17 05:02:00,41.0,40.0,-100.00,WNW,289,2.0,7.0,97,-99.99,,,-99.99,,2013-04-17 12:02:00,
2013-04-17 05:12:00,41.0,40.0,-100.00,NW,318,2.0,7.0,97,-99.99,,,-99.99,,2013-04-17 12:12:00,
2013-04-17 05:22:00,41.0,40.0,-100.00,WNW,290,3.0,6.0,97,-99.99,,,-99.99,,2013-04-17 12:22:00,
2013-04-17 05:32:00,41.0,40.0,-100.00,WNW,286,2.0,4.0,96,-99.99,,,-99.99,,2013-04-17 12:32:00,
2013-04-17 05:42:00,41.0,40.0,-100.00,WNW,292,1.0,5.0,96,-99.99,,,-99.99,,2013-04-17 12:42:00,
2013-04-17 05:52:00,41.0,40.0,-100.00,WNW,299,2.0,5.0,95,-99.99,,,-99.99,,2013-04-17 12:52:00,
2013-04-17 06:02:00,41.0,40.0,-100.00,NW,310,2.0,3.0,95,-99.99,,,-99.99,,2013-04-17 13:02:00,
2013-04-17 06:12:00,41.0,39.0,-100.00,NNW,339,1.0,5.0,94,-99.99,,,-99.99,,2013-04-17 13:12:00,
2013-04-17 06:22:00,40.0,38.0,-100.00,NNW,347,2.0,4.0,94,-99.99,,,-99.99,,2013-04-17 13:22:00,
2013-04-17 06:32:00,40.0,38.0,-100.00,NNW,347,2.0,4.0,94,-99.99,,,-99.99,,2013-04-17 13:32:00,
2013-04-17 06:42:00,39.0,37.0,-100.00,NNE,28,3.0,4.0,94,-99.99,,,-99.99,,2013-04-17 13:42:00,
2013-04-17 06:52:00,39.0,37.0,-100.00,NNE,28,3.0,4.0,94,-99.99,,,-99.99,,2013-04-17 13:52:00,
2013-04-17 07:02:00,39.0,37.0,-100.00,NNE,30,3.0,4.0,92,-99.99,,,-99.99,,2013-04-17 14:02:00,
2013-04-17 07:12:00,39.0,36.0,-100.00,NNE,18,3.0,5.0,90,-99.99,,,-99.99,,2013-04-17 14:12:00,
2013-04-17 07:22:00,39.0,35.0,-100.00,NNE,17,4.0,5.0,87,-99.99,,,-99.99,,2013-04-17 14:22:00,
2013-04-17 07:32:00,40.0,36.0,-100.00,NNE,20,4.0,6.0,86,-99.99,,,-99.99,,2013-04-17 14:32:00,
2013-04-17 07:42:00,40.0,36.0,-100.00,North,4,3.0,4.0,85,-99.99,,,-99.99,,2013-04-17 14:42:00,
2013-04-17 07:52:00,42.0,37.0,-100.00,NNW,340,2.0,4.0,83,-99.99,,,-99.99,,2013-04-17 14:52:00,
2013-04-17 08:02:00,44.0,37.0,-100.00,NNW,345,2.0,7.0,77,-99.99,,,-99.99,,2013-04-17 15:02:00,
2013-04-17 08:12:00,45.0,37.0,-100.00,NNW,348,3.0,8.0,72,-99.99,,,-99.99,,2013-04-17 15:12:00,
2013-04-17 08:22:00,46.0,35.0,-100.00,NNW,339,4.0,10.0,66,-99.99,,,-99.99,,2013-04-17 15:22:00,
2013-04-17 08:33:00,47.0,34.0,-100.00,NNW,336,4.0,10.0,60,-99.99,,,-99.99,,2013-04-17 15:33:00,
2013-04-17 08:42:00,47.0,32.0,-100.00,NNW,331,5.0,11.0,55,-99.99,,,-99.99,,2013-04-17 15:42:00,
2013-04-17 08:52:00,48.0,30.0,-100.00,NW,318,6.0,12.0,50,-99.99,,,-99.99,,2013-04-17 15:52:00,
2013-04-17 09:03:00,48.0,29.0,-100.00,NW,324,6.0,11.0,47,-99.99,,,-99.99,,2013-04-17 16:03:00,
2013-04-17 09:12:00,49.0,28.0,-100.00,NNW,330,6.0,11.0,44,-99.99,,,-99.99,,2013-04-17 16:12:00,
2013-04-17 09:22:00,49.0,26.0,-100.00,NNW,329,6.0,12.0,41,-99.99,,,-99.99,,2013-04-17 16:22:00,
2013-04-17 09:32:00,50.0,26.0,-100.00,NNW,335,7.0,14.0,39,-99.99,,,-99.99,,2013-04-17 16:32:00,
2013-04-17 09:42:00,50.0,25.0,-100.00,NNW,335,8.0,16.0,38,-99.99,,,-99.99,,2013-04-17 16:42:00,
2013-04-17 09:52:00,50.0,24.0,-100.00,NW,323,8.0,15.0,36,-99.99,,,-99.99,,2013-04-17 16:52:00,
2013-04-17 10:02:00,51.0,24.0,-100.00,NNW,329,9.0,19.0,35,-99.99,,,-99.99,,2013-04-17 17:02:00,
2013-04-17 10:12:00,52.0,25.0,-100.00,NNW,328,8.0,14.0,34,-99.99,,,-99.99,,2013-04-17 17:12:00,
2013-04-17 10:22:00,52.0,24.0,-100.00,NW,324,7.0,16.0,33,-99.99,,,-99.99,,2013-04-17 17:22:00,
2013-04-17 10:32:00,52.0,25.0,-100.00,NW,313,9.0,15.0,34,-99.99,,,-99.99,,2013-04-17 17:32:00,
2013-04-17 10:42:00,52.0,24.0,-100.00,NW,304,8.0,19.0,33,-99.99,,,-99.99,,2013-04-17 17:42:00,
2013-04-17 10:52:00,53.0,24.0,-100.00,NW,317,8.0,14.0,32,-99.99,,,-99.99,,2013-04-17 17:52:00,
2013-04-17 11:02:00,54.0,25.0,-100.00,NW,307,7.0,13.0,32,-99.99,,,-99.99,,2013-04-17 18:02:00,
2013-04-17 11:12:00,54.0,24.0,-100.00,NW,321,7.0,16.0,31,-99.99,,,-99.99,,2013-04-17 18:12:00,
2013-04-17 11:22:00,54.0,25.0,-100.00,WNW,298,8.0,13.0,32,-99.99,,,-99.99,,2013-04-17 18:22:00,
2013-04-17 11:32:00,54.0,24.0,-100.00,WNW,289,6.0,16.0,31,-99.99,,,-99.99,,2013-04-17 18:32:00,
2013-04-17 11:42:00,55.0,23.0,-100.00,WNW,303,9.0,13.0,29,-99.99,,,-99.99,,2013-04-17 18:42:00,
2013-04-17 11:52:00,55.0,24.0,-100.00,NW,306,7.0,15.0,30,-99.99,,,-99.99,,2013-04-17 18:52:00,
2013-04-17 12:02:00,56.0,25.0,-100.00,NW,324,7.0,13.0,30,-99.99,,,-99.99,,2013-04-17 19:02:00,
2013-04-17 12:12:00,56.0,24.0,-100.00,NW,305,6.0,15.0,29,-99.99,,,-99.99,,2013-04-17 19:12:00,
2013-04-17 12:22:00,57.0,25.0,-100.00,WNW,301,8.0,11.0,29,-99.99,,,-99.99,,2013-04-17 19:22:00,
2013-04-17 12:32:00,58.0,26.0,-100.00,WNW,303,6.0,14.0,29,-99.99,,,-99.99,,2013-04-17 19:32:00,
2013-04-17 12:42:00,58.0,25.0,-100.00,WNW,302,7.0,13.0,28,-99.99,,,-99.99,,2013-04-17 19:42:00,
2013-04-17 12:52:00,58.0,25.0,-100.00,NNW,329,6.0,14.0,28,-99.99,,,-99.99,,2013-04-17 19:52:00,
2013-04-17 13:02:00,59.0,25.0,-100.00,WNW,296,7.0,15.0,27,-99.99,,,-99.99,,2013-04-17 20:02:00,
2013-04-17 13:12:00,59.0,24.0,-100.00,NW,307,6.0,14.0,26,-99.99,,,-99.99,,2013-04-17 20:12:00,
2013-04-17 13:22:00,59.0,23.0,-100.00,WSW,257,6.0,17.0,25,-99.99,,,-99.99,,2013-04-17 20:22:00,
2013-04-17 13:32:00,59.0,24.0,-100.00,West,263,7.0,14.0,26,-99.99,,,-99.99,,2013-04-17 20:32:00,
2013-04-17 13:42:00,59.0,23.0,-100.00,WSW,252,8.0,17.0,25,-99.99,,,-99.99,,2013-04-17 20:42:00,
2013-04-17 13:52:00,59.0,23.0,-100.00,WSW,254,9.0,18.0,25,-99.99,,,-99.99,,2013-04-17 20:52:00,
2013-04-17 14:02:00,60.0,23.0,-100.00,WSW,257,9.0,17.0,24,-99.99,,,-99.99,,2013-04-17 21:02:00,
2013-04-17 14:12:00,61.0,23.0,-100.00,West,279,9.0,15.0,23,-99.99,,,-99.99,,2013-04-17 21:12:00,
2013-04-17 14:22:00,60.0,22.0,-100.00,WSW,248,9.0,14.0,23,-99.99,,,-99.99,,2013-04-17 21:22:00,
2013-04-17 14:32:00,60.0,22.0,-100.00,WSW,248,6.0,19.0,23,-99.99,,,-99.99,,2013-04-17 21:32:00,
2013-04-17 14:42:00,61.0,23.0,-100.00,West,259,10.0,14.0,23,-99.99,,,-99.99,,2013-04-17 21:42:00,
2013-04-17 14:53:00,61.0,22.0,-100.00,West,271,6.0,15.0,22,-99.99,,,-99.99,,2013-04-17 21:53:00,
2013-04-17 15:02:00,61.0,22.0,-100.00,West,276,6.0,14.0,22,-99.99,,,-99.99,,2013-04-17 22:02:00,
2013-04-17 15:12:00,62.0,23.0,-100.00,West,269,8.0,14.0,22,-99.99,,,-99.99,,2013-04-17 22:12:00,
2013-04-17 15:22:00,62.0,22.0,-100.00,West,263,7.0,15.0,21,-99.99,,,-99.99,,2013-04-17 22:22:00,
2013-04-17 15:33:00,62.0,22.0,-100.00,WSW,258,8.0,17.0,21,-99.99,,,-99.99,,2013-04-17 22:33:00,
2013-04-17 15:42:00,62.0,25.0,-100.00,WSW,248,8.0,22.0,24,-99.99,,,-99.99,,2013-04-17 22:42:00,
2013-04-17 15:52:00,61.0,26.0,-100.00,WSW,252,12.0,18.0,26,-99.99,,,-99.99,,2013-04-17 22:52:00,
2013-04-17 16:02:00,61.0,27.0,-100.00,WSW,258,12.0,20.0,27,-99.99,,,-99.99,,2013-04-17 23:02:00,
2013-04-17 16:12:00,60.0,28.0,-100.00,West,259,11.0,21.0,29,-99.99,,,-99.99,,2013-04-17 23:12:00,
2013-04-17 16:22:00,60.0,28.0,-100.00,West,266,12.0,21.0,29,-99.99,,,-99.99,,2013-04-17 23:22:00,
2013-04-17 16:32:00,60.0,28.0,-100.00,West,261,9.0,21.0,29,-99.99,,,-99.99,,2013-04-17 23:32:00,
2013-04-17 16:42:00,59.0,27.0,-100.00,West,261,11.0,21.0,29,-99.99,,,-99.99,,2013-04-17 23:42:00,
2013-04-17 16:52:00,59.0,28.0,-100.00,West,266,12.0,19.0,30,-99.99,,,-99.99,,2013-04-17 23:52:00,
2013-04-17 17:02:00,59.0,27.0,-100.00,West,264,11.0,19.0,29,-99.99,,,-99.99,,2013-04-18 00:02:00,
2013-04-17 17:12:00,59.0,26.0,-100.00,WSW,257,10.0,19.0,28,-99.99,,,-99.99,,2013-04-18 00:12:00,
2013-04-17 17:22:00,59.0,25.0,-100.00,WSW,251,10.0,20.0,27,-99.99,,,-99.99,,2013-04-18 00:22:00,
2013-04-17 17:32:00,59.0,25.0,-100.00,WSW,244,10.0,19.0,27,-99.99,,,-99.99,,2013-04-18 00:32:00,
2013-04-17 17:42:00,59.0,25.0,-100.00,WSW,244,10.0,19.0,27,-99.99,,,-99.99,,2013-04-18 00:42:00,
2013-04-17 17:52:00,58.0,24.0,-100.00,West,262,10.0,17.0,27,-99.99,,,-99.99,,2013-04-18 00:52:00,
2013-04-17 18:02:00,58.0,23.0,-100.00,WSW,258,9.0,17.0,26,-99.99,,,-99.99,,2013-04-18 01:02:00,
2013-04-17 18:12:00,58.0,23.0,-100.00,WSW,256,8.0,12.0,26,-99.99,,,-99.99,,2013-04-18 01:12:00,
2013-04-17 18:22:00,58.0,23.0,-100.00,WSW,255,8.0,13.0,26,-99.99,,,-99.99,,2013-04-18 01:22:00,
2013-04-17 18:32:00,58.0,24.0,-100.00,WSW,254,7.0,14.0,27,-99.99,,,-99.99,,2013-04-18 01:32:00,
2013-04-17 18:42:00,57.0,23.0,-100.00,WSW,256,8.0,14.0,27,-99.99,,,-99.99,,2013-04-18 01:42:00,
2013-04-17 18:52:00,57.0,23.0,-100.00,WSW,258,8.0,14.0,27,-99.99,,,-99.99,,2013-04-18 01:52:00,
2013-04-17 19:02:00,57.0,24.0,-100.00,West,259,7.0,14.0,28,-99.99,,,-99.99,,2013-04-18 02:02:00,
2013-04-17 19:12:00,56.0,23.0,-100.00,West,260,8.0,13.0,28,-99.99,,,-99.99,,2013-04-18 02:12:00,
2013-04-17 19:22:00,55.0,24.0,-100.00,WSW,258,8.0,12.0,30,-99.99,,,-99.99,,2013-04-18 02:22:00,
2013-04-17 19:32:00,54.0,24.0,-100.00,WSW,257,7.0,13.0,31,-99.99,,,-99.99,,2013-04-18 02:32:00,
2013-04-17 19:42:00,54.0,24.0,-100.00,WSW,257,7.0,13.0,31,-99.99,,,-99.99,,2013-04-18 02:42:00,
2013-04-17 19:52:00,54.0,24.0,-100.00,WSW,257,7.0,13.0,31,-99.99,,,-99.99,,2013-04-18 02:52:00,
2013-04-17 20:02:00,52.0,25.0,-100.00,West,274,5.0,7.0,34,-99.99,,,-99.99,,2013-04-18 03:02:00,
2013-04-17 20:12:00,52.0,25.0,-100.00,WNW,296,4.0,7.0,35,-99.99,,,-99.99,,2013-04-18 03:12:00,
2013-04-17 20:22:00,50.0,25.0,-100.00,North,4,3.0,3.0,38,-99.99,,,-99.99,,2013-04-18 03:22:00,
2013-04-17 20:33:00,50.0,25.0,-100.00,NNW,330,1.0,5.0,37,-99.99,,,-99.99,,2013-04-18 03:33:00,
2013-04-17 20:43:00,50.0,25.0,-100.00,NNE,19,3.0,4.0,37,-99.99,,,-99.99,,2013-04-18 03:43:00,
2013-04-17 20:53:00,51.0,25.0,-100.00,North,352,2.0,3.0,36,-99.99,,,-99.99,,2013-04-18 03:53:00,
2013-04-17 21:03:00,49.0,25.0,-100.00,NE,34,2.0,3.0,38,-99.99,,,-99.99,,2013-04-18 04:03:00,
2013-04-17 21:13:00,49.0,25.0,-100.00,NNE,32,2.0,3.0,39,-99.99,,,-99.99,,2013-04-18 04:13:00,
2013-04-17 21:23:00,49.0,25.0,-100.00,North,7,2.0,3.0,38,-99.99,,,-99.99,,2013-04-18 04:23:00,
2013-04-17 21:32:00,49.0,23.0,-100.00,North,8,2.0,3.0,36,-99.99,,,-99.99,,2013-04-18 04:32:00,
2013-04-17 21:43:00,49.0,23.0,-100.00,NNE,14,2.0,5.0,36,-99.99,,,-99.99,,2013-04-18 04:43:00,
2013-04-17 21:52:00,50.0,24.0,-100.00,NNE,12,3.0,7.0,36,-99.99,,,-99.99,,2013-04-18 04:52:00,
2013-04-17 22:02:00,49.0,24.0,-100.00,NNE,16,4.0,7.0,37,-99.99,,,-99.99,,2013-04-18 05:02:00,
2013-04-17 22:12:00,47.0,23.0,-100.00,NNE,18,5.0,5.0,39,-99.99,,,-99.99,,2013-04-18 05:12:00,
2013-04-17 22:22:00,49.0,23.0,-100.00,NNE,14,4.0,6.0,36,-99.99,,,-99.99,,2013-04-18 05:22:00,
2013-04-17 22:32:00,48.0,22.0,-100.00,NNE,12,4.0,6.0,36,-99.99,,,-99.99,,2013-04-18 05:32:00,
2013-04-17 22:42:00,47.0,22.0,-100.00,North,7,4.0,4.0,37,-99.99,,,-99.99,,2013-04-18 05:42:00,
2013-04-17 22:52:00,49.0,19.0,-100.00,NNE,16,1.0,4.0,30,-99.99,,,-99.99,,2013-04-18 05:52:00,
2013-04-17 23:02:00,50.0,16.0,-100.00,NE,50,2.0,5.0,25,-99.99,,,-99.99,,2013-04-18 06:02:00,
2013-04-17 23:12:00,48.0,14.0,-100.00,ENE,61,3.0,7.0,25,-99.99,,,-99.99,,2013-04-18 06:12:00,
2013-04-17 23:22:00,48.0,13.0,-100.00,ENE,58,5.0,7.0,24,-99.99,,,-99.99,,2013-04-18 06:22:00,
2013-04-17 23:32:00,49.0,12.0,-100.00,ENE,64,5.0,9.0,22,-99.99,,,-99.99,,2013-04-18 06:32:00,
2013-04-17 23:42:00,49.0,12.0,-100.00,ENE,64,6.0,10.0,22,-99.99,,,-99.99,,2013-04-18 06:42:00,
2013-04-17 23:52:00,49.0,11.0,-100.00,ENE,68,8.0,12.0,21,-99.99,,,-99.99,,2013-04-18 06:52:00,